Torna al catalogo

STARLINK-4440

AttivoComunicazioniSSO
NORAD 53671·PAYLOAD·🇺🇸 United States

Lanciato Aug 31, 2022 da Vandenberg Space Force Base

Loading…

Prossimi Passaggi (prossime 24 ore)

TLE

AggiornatoSource: CelesTrak SupGP

Epoca: Sep 15, 2026, 02:23 UTC

1 53671C 22105Z   26258.09979167  .00051153  00000+0  35509-2 0  2589
2 53671  97.2845 132.1380 0002122  81.3084  41.2755 15.05638602    19

Traccia STARLINK-4440 in tempo reale con AllMySat

Download on the App Store